This is the latest recevied weather packets stored in our database for station/object K5FEP. If no packets are shown the sender has not sent any weather packets the latest 10 day(s).
| Time | Temp. | Humidity | Pressure | Rain* | Wind** | Luminosity | Snow |
|---|---|---|---|---|---|---|---|
| 1777895692 | 6.67° C | 87% | 1016.3 hPa | 0 mm | - | 78 W/m² | - |
| 1777895389 | 6.11° C | 90% | 1016.2 hPa | 0 mm | - | 80 W/m² | - |
| 1777895087 | 5.56° C | 90% | 1016.4 hPa | 0 mm | - | 81 W/m² | - |
| 1777894783 | 5° C | 91% | 1016.4 hPa | 0 mm | - | 80 W/m² | - |
| 1777894480 | 4.44° C | 91% | 1016.5 hPa | 0 mm | - | 80 W/m² | - |
| 1777894178 | 4.44° C | 91% | 1016.3 hPa | 0 mm | - | 76 W/m² | - |
| 1777893875 | 4.44° C | 91% | 1016.3 hPa | 0 mm | - | 59 W/m² | - |
| 1777893571 | 4.44° C | 90% | 1016.4 hPa | 0 mm | - | 50 W/m² | - |
| 1777893268 | 4.44° C | 90% | 1016.5 hPa | 0 mm | - | 47 W/m² | - |
| 1777892964 | 4.44° C | 91% | 1016.6 hPa | 0 mm | - | 40 W/m² | - |
| 1777892661 | 3.89° C | 92% | 1016.6 hPa | 0 mm | - | 32 W/m² | - |
| 1777892356 | 3.33° C | 94% | 1016.3 hPa | 0 mm | - | 27 W/m² | - |
| 1777892053 | 2.78° C | 94% | 1016.4 hPa | 0 mm | - | 29 W/m² | - |
| 1777891750 | 2.78° C | 93% | 1016.2 hPa | 0 mm | - | 23 W/m² | - |
| 1777891447 | 2.78° C | 93% | 1016.3 hPa | 0 mm | - | 17 W/m² | - |
| 1777891142 | 2.78° C | 93% | 1016.5 hPa | 0 mm | - | 13 W/m² | - |
| 1777890837 | 2.78° C | 93% | 1016.3 hPa | 0 mm | - | 9 W/m² | - |
| 1777890533 | 2.22° C | 93% | 1016.2 hPa | 0 mm | - | 6 W/m² | - |
| 1777890229 | 2.22° C | 93% | 1016.2 hPa | 0 mm | - | 4 W/m² | - |
| 1777889925 | 2.22° C | 93% | 1016.1 hPa | 0 mm | - | 3 W/m² | - |
| 1777889624 | 2.22° C | 93% | 1016.3 hPa | 0 mm | - | 1 W/m² | - |
| 1777889321 | 2.22° C | 93% | 1016.2 hPa | 0 mm | - | 1 W/m² | - |
| 1777889018 | 2.22° C | 92% | 1016.3 hPa | 0 mm | - | 0 W/m² | - |
| 1777888716 | 2.22° C | 92% | 1016.1 hPa | 0 mm | - | 0 W/m² | - |
| 1777888411 | 2.22° C | 92% | 1016.2 hPa | 0 mm | - | 0 W/m² | - |
* Rain latest hour (hover to see other rain measurements)
** Current wind speed in m/s (hover to see current wind gust speed)